Temperature
20 20 20 20 20 20 19 19 19 19 19 18 18 18 18 18 18 17 17 17 17 17 17 17 17 17 17 17 17 17 17 17 17 17 17 17 16 16 16 16 15 15 15
20 20 20 19 19 19 19 19 19 19 18 18 18 18 18 18 18 17 17 17 17 17 17 17 17 17 17 17 17 17 17 17 17 16 16 16 16 16 16 15 15 15 15
20 20 19 19 19 19 19 19 19 19 18 18 18 18 18 17 17 17 17 17 17 17 17 17 17 17 17 17 17 17 17 17 16 16 16 16 16 16 15 15 15 14 14
20 19 19 19 19 19 19 19 19 18 18 18 18 18 17 17 17 17 17 17 17 17 17 17 17 17 17 17 17 17 16 16 16 16 16 16 15 15 15 15 14 14 14
19 19 19 19 19 19 19 18 18 18 18 18 18 17 17 17 17 17 17 17 17 17 17 17 17 17 17 16 16 16 16 16 16 16 16 16 15 15 15 15 14 14 14
19 19 19 18 18 18 18 18 18 18 18 18 17 17 17 17 17 17 17 17 17 17 16 16 16 16 16 16 16 16 16 16 16 16 16 15 15 15 15 15 14 14 14
19 19 18 18 18 18 18 17 17 17 17 17 17 17 17 17 17 17 17 16 16 16 16 16 16 16 16 16 16 16 16 16 15 15 15 15 15 15 15 15 14 14 14
19 18 18 17 17 17 17 17 17 17 17 17 17 17 16 16 16 16 16 16 16 16 16 16 16 16 16 16 15 15 15 15 15 15 15 15 15 15 14 14 14 14 14
18 17 17 17 17 17 16 16 16 17 17 16 16 16 16 16 16 16 16 16 15 16 16 16 15 15 15 15 15 15 15 15 15 15 15 15 15 14 14 14 14 13 13
17 17 17 16 16 16 16 16 16 16 16 16 16 16 16 16 16 16 16 15 15 15 15 15 15 15 15 15 14 14 14 15 14 14 14 14 14 14 14 14 13 13 13
16 16 16 16 16 16 16 16 16 16 15 15 15 15 15 16 16 16 15 15 15 15 15 14 15 15 15 14 14 14 14 14 14 14 14 14 14 14 14 14 13 13 13
16 16 16 16 16 15 15 15 15 15 15 15 15 15 15 15 15 15 15 15 14 14 14 14 14 14 14 14 14 14 14 13 13 13 13 13 13 13 13 13 13 13 13
15 15 15 15 15 15 15 15 15 15 15 15 14 14 14 14 15 15 15 14 14 14 14 13 13 13 13 13 13 13 13 13 13 12 12 12 13 13 12 12 12 12 12
15 15 14 14 15 15 14 14 14 14 14 14 14 14 14 14 14 14 14 13 13 13 13 13 13 13 13 13 13 13 13 13 12 12 12 12 12 12 12 12 12 12 12
14 14 14 14 14 14 14 14 14 14 14 14 14 14 14 13 13 14 13 13 13 13 13 12 12 12 12 12 12 12 12 12 12 12 12 11 11 11 11 11 11 11 11
13 13 13 13 14 14 14 14 14 14 14 14 14 14 14 13 13 13 13 13 13 12 12 12 12 12 12 12 12 12 12 12 12 11 11 11 11 11 11 11 11 11 11
13 13 13 13 13 13 13 14 14 14 14 13 13 13 13 13 13 13 12 12 12 12 12 12 11 11 11 11 11 11 11 11 11 11 11 11 10 10 10 10 10 10 10
13 13 13 13 13 13 13 13 13 13 13 13 13 13 13 12 12 12 12 12 11 11 11 11 11 11 11 11 11 11 11 11 10 10 10 10 10 10 10 10 10 10 10
12 12 12 12 12 13 13 13 13 13 13 13 12 12 12 12 12 12 11 11 11 11 11 11 11 11 11 11 11 11 10 10 10 10 10 10 10 10 10 10 10 10 10
12 12 12 12 12 12 12 12 12 12 12 12 12 12 12 12 11 11 11 11 11 11 11 11 11 11 11 10 10 10 10 10 10 10 10 9 9 9 9 9 9 9 9
12 12 12 12 12 12 12 12 12 12 12 12 12 12 12 11 11 11 11 11 11 11 10 10 10 10 10 10 10 10 10 9 9 9 9 9 9 9 9 9 9 9 9
12 12 12 12 12 12 12 12 12 12 12 12 12 11 11 11 11 11 11 11 11 10 10 10 10 10 10 10 10 9 9 9 9 9 9 9 9 9 9 9 9 9 9
12 12 12 12 12 12 12 11 11 11 11 11 11 11 11 11 11 10 10 10 10 10 10 10 10 10 9 9 9 9 9 9 8 8 8 8 8 8 8 8 8 8 8
11 12 12 12 12 11 11 11 11 11 11 11 11 11 11 11 10 10 10 10 10 10 10 10 9 9 9 9 9 9 8 8 8 8 8 8 8 8 8 8 8 8 8
11 11 11 11 11 11 11 11 11 11 11 11 11 11 10 10 10 10 10 10 10 9 9 9 9 9 9 8 8 8 8 8 8 8 8 8 8 8 8 8 8 8 8
11 11 11 11 11 11 11 11 11 11 10 10 10 10 10 10 10 10 10 9 9 9 9 9 9 9 8 8 8 8 8 8 8 7 7 7 7 7 7 7 8 8 8
Wind_Speed
9 7 6 7 6 5 4 3 3 3 3 3 3 3 4 4 4 4 5 5 4 4 4 4 5 5 4 4 3 3 3 3 3 2 1 3 3 3 5 7 8 8 9
9 8 7 6 6 5 5 4 3 3 3 3 3 3 4 4 4 5 6 5 4 5 4 5 5 5 5 4 4 4 3 3 3 3 3 3 4 4 5 5 6 7 8
9 8 7 7 6 6 5 4 4 3 3 3 3 3 4 3 3 4 4 4 4 4 4 5 5 5 5 4 5 4 3 4 4 4 4 3 3 4 4 4 4 3 5
8 8 8 7 6 5 4 4 4 4 4 4 4 4 4 4 4 4 4 5 5 5 5 5 5 5 5 5 5 4 4 4 4 4 4 4 3 4 4 4 3 3 3
7 7 7 6 5 5 5 5 5 5 5 4 4 4 4 5 5 4 5 5 5 5 5 4 4 4 3 3 4 2 3 4 4 4 5 4 3 3 4 3 4 3 3
6 6 6 5 5 5 5 5 5 5 4 4 4 4 5 5 4 5 4 4 4 4 5 4 4 4 4 4 3 2 2 4 4 4 4 4 4 3 3 3 3 3 3
4 4 5 5 5 5 5 5 5 4 4 4 4 4 5 4 4 3 4 4 5 5 5 4 5 4 4 3 4 4 4 5 6 4 5 5 4 3 3 4 4 4 4
3 4 4 4 4 4 4 4 4 4 4 4 4 4 4 4 4 4 4 5 5 5 5 4 4 3 3 2 2 3 4 4 5 5 3 3 2 1 2 4 5 5 4
3 3 3 4 3 3 3 3 3 3 3 4 4 4 4 3 4 4 4 4 4 5 6 5 4 4 3 3 4 4 4 4 3 2 3 3 3 3 3 3 4 4 4
1 1 1 2 3 3 3 2 2 3 3 4 4 4 4 4 5 5 5 4 4 5 4 4 4 5 5 5 5 5 6 5 4 4 4 5 6 6 7 6 5 4 3
0 0 1 1 2 2 2 2 2 3 3 4 4 4 4 4 4 4 5 4 4 5 4 3 2 4 5 6 6 5 6 5 4 5 5 5 5 4 5 6 5 4 4
1 0 1 1 2 2 1 2 2 3 3 3 4 5 4 3 3 4 5 6 5 5 4 2 2 4 4 5 5 6 6 5 4 4 4 4 4 4 4 4 5 6 5
2 2 2 2 2 2 2 3 3 2 3 3 4 4 3 2 2 3 4 5 5 4 3 2 2 3 3 4 7 7 6 5 4 4 4 4 4 3 3 3 4 4 5
2 2 2 3 3 2 2 3 2 2 2 2 3 3 2 1 1 1 1 2 3 3 2 2 1 3 4 5 4 5 5 4 4 4 4 4 3 3 3 3 4 4 4
3 3 3 3 2 2 3 2 2 1 1 3 3 2 2 2 2 1 2 2 2 2 1 2 2 2 3 3 3 3 4 3 4 4 4 3 2 2 3 3 3 4 4
3 3 3 3 2 3 3 2 1 2 2 3 2 2 2 1 1 1 2 2 3 3 1 3 3 4 4 4 3 3 3 3 3 3 3 3 3 3 3 2 2 3 3
4 4 4 3 3 4 3 3 2 2 1 1 2 2 2 1 1 1 2 1 2 2 3 4 4 4 4 4 3 3 3 2 2 3 2 3 3 3 3 2 2 2 3
4 4 4 3 3 3 4 3 3 2 2 2 2 4 4 4 4 3 2 1 1 2 3 3 3 3 3 2 2 2 1 1 2 2 2 3 2 2 2 2 2 3 3
5 4 3 3 3 3 3 3 4 3 2 1 1 1 3 3 3 3 3 2 2 3 3 3 2 2 1 1 1 0 0 1 1 1 2 2 2 2 3 3 3 4 4
4 4 3 4 3 3 2 3 3 3 2 1 1 1 1 2 1 1 2 3 3 3 3 2 2 1 0 0 1 1 1 1 1 1 1 2 2 2 3 4 3 3 3
4 3 2 3 3 3 3 3 3 2 2 2 1 1 3 3 3 3 3 3 3 2 2 2 1 1 1 1 1 1 1 1 1 1 1 2 2 2 3 3 4 3 3
3 3 2 2 2 2 2 2 3 2 2 2 1 2 4 3 2 1 1 1 1 1 1 1 1 1 1 0 1 1 1 1 1 1 2 2 2 3 3 3 3 3 3
3 3 2 2 2 1 1 2 2 2 2 2 2 1 1 1 1 1 1 0 1 1 1 1 1 1 0 0 0 0 0 1 2 2 2 2 2 2 2 3 4 4 3
3 3 3 2 2 2 2 2 2 2 2 2 2 1 1 1 1 1 1 1 1 0 1 0 0 1 1 1 1 2 2 2 3 3 3 3 2 3 3 3 3 3 3
3 3 3 2 3 2 2 3 2 2 2 2 2 2 2 1 1 1 1 1 1 0 0 0 0 0 1 1 2 3 3 3 3 4 3 2 2 3 3 3 3 3 3
3 3 3 3 3 3 2 2 2 2 2 2 2 2 1 1 2 1 1 1 1 1 1 0 1 1 2 2 3 4 3 3 3 4 4 3 3 3 3 3 4 3 3
Wind_Direction
177 180 182 182 187 187 196 205 198 197 190 204 214 220 223 230 236 237 241 242 240 250 254 250 246 254 253 244 239 235 229 217 228 236 199 162 162 171 165 185 187 182 185
174 175 178 177 180 189 196 201 196 194 198 208 212 226 239 236 232 236 244 246 241 244 252 255 251 245 240 249 246 238 231 220 214 230 226 199 198 189 184 199 201 196 185
172 171 172 185 188 193 194 196 197 196 205 219 218 230 246 245 238 239 243 250 249 249 247 249 249 245 241 243 241 241 234 229 210 220 231 216 209 199 192 212 212 189 198
170 173 179 185 186 189 190 194 198 201 206 216 227 233 241 246 248 253 247 248 247 250 251 248 248 245 242 240 239 235 237 238 226 225 233 225 203 194 193 205 205 207 216
171 177 179 177 177 183 192 198 200 205 213 214 225 236 241 243 244 249 250 245 246 249 250 242 237 234 235 238 243 241 237 237 236 232 231 228 213 195 206 207 211 206 216
170 175 172 177 184 192 197 202 205 208 215 218 223 233 243 247 242 234 241 252 251 251 247 238 233 221 211 204 207 219 228 235 243 246 243 229 218 209 206 214 209 214 226
162 167 167 179 190 195 204 207 215 219 221 230 231 232 239 243 229 230 241 245 251 252 249 244 249 241 208 202 202 209 222 233 235 246 253 250 240 220 211 222 226 228 233
164 168 167 184 198 199 201 214 225 230 231 238 238 235 238 246 228 228 245 246 252 251 247 246 246 249 239 214 223 234 234 239 241 235 242 262 263 248 219 225 230 231 239
176 181 180 187 196 200 206 223 236 239 244 245 244 242 236 240 237 234 234 252 249 249 247 243 230 223 209 205 219 238 242 242 241 205 203 216 224 229 223 228 233 228 232
218 218 207 198 203 208 204 220 235 242 250 254 246 246 234 226 225 226 229 253 254 254 253 245 229 204 192 203 226 231 239 240 229 229 229 232 230 227 221 219 229 233 240
14 311 211 186 213 214 200 221 238 248 254 257 251 248 241 228 220 218 223 246 257 260 257 245 223 182 200 219 230 238 238 242 234 231 229 226 226 222 216 216 217 221 229
23 339 327 270 255 241 224 247 247 243 251 261 263 255 242 218 211 231 236 242 260 263 259 248 218 195 214 225 229 239 248 247 244 240 238 229 224 224 219 216 215 216 219
351 341 334 295 265 258 243 255 255 249 251 258 259 259 257 234 203 214 237 252 257 263 279 276 224 210 224 232 233 236 241 238 237 242 241 240 233 224 215 212 214 220 230
329 320 299 284 268 269 260 261 261 259 264 276 272 269 279 283 278 244 256 261 277 270 273 291 245 239 257 254 237 235 230 230 226 239 247 241 224 208 213 215 215 211 228
294 293 292 272 259 266 265 276 276 288 266 260 277 279 268 263 268 252 241 253 256 260 276 247 230 230 237 244 237 227 222 219 229 239 247 251 238 217 218 226 228 223 220
281 278 274 279 278 262 247 270 334 250 220 210 226 255 297 314 155 185 218 209 213 215 226 251 235 229 234 234 235 233 226 223 225 233 238 239 241 236 234 230 226 227 232
282 286 288 288 287 281 264 253 262 263 254 239 249 239 220 207 180 196 225 223 222 188 219 245 242 236 237 237 234 237 229 221 224 238 240 244 248 244 234 222 216 238 246
291 285 283 282 284 277 277 274 263 251 241 255 247 221 214 209 212 216 213 161 251 228 247 251 248 240 236 241 245 241 233 218 209 219 230 238 245 256 256 242 223 230 241
297 293 294 292 285 284 282 280 277 266 259 241 190 163 209 208 214 221 198 222 241 250 252 256 263 264 258 230 231 252 233 230 226 234 229 237 238 242 251 245 234 237 239
294 283 280 289 291 293 287 288 291 290 287 282 235 226 175 185 216 206 210 236 244 250 252 254 259 277 273 181 189 198 204 243 261 261 253 246 240 242 244 248 247 240 237
308 305 262 284 301 308 315 311 303 302 301 288 271 228 201 221 229 219 215 229 243 254 256 259 257 251 219 208 209 214 220 233 252 283 293 285 270 258 255 245 243 250 250
310 314 312 306 304 311 315 309 310 316 305 300 274 206 207 244 269 265 246 241 234 245 260 253 253 261 250 249 242 254 255 299 323 308 305 290 272 267 264 256 251 243 242
290 298 311 306 299 284 292 309 307 301 297 287 277 250 202 270 302 303 317 328 275 250 269 284 306 317 85 67 21 35 331 308 310 307 298 290 292 288 272 260 254 240 237
297 300 298 300 304 302 300 298 299 299 308 331 338 334 317 290 304 347 4 18 354 29 77 95 80 24 52 67 66 69 48 13 352 339 320 309 302 290 279 273 269 263 247
300 301 294 294 297 304 306 302 310 320 330 339 336 334 331 326 333 1 353 347 312 324 154 195 172 159 112 85 81 73 61 41 12 345 321 302 299 302 297 289 286 278 267
310 318 314 306 301 301 309 315 321 323 316 307 315 321 311 303 306 311 303 297 297 282 272 251 89 83 104 105 98 94 88 54 14 348 331 302 296 310 312 300 293 291 290
Height
1507 1509 1512 1514 1515 1517 1519 1520 1521 1522 1523 1524 1524 1524 1525 1525 1526 1526 1526 1527 1527 1527 1527 1527 1527 1528 1529 1530 1531 1532 1533 1533 1534 1534 1535 1536 1536 1536 1536 1535 1535 1535 1535
1504 1507 1509 1510 1513 1514 1515 1517 1518 1519 1520 1521 1521 1521 1522 1522 1522 1523 1523 1523 1524 1523 1523 1523 1523 1524 1525 1526 1528 1528 1529 1530 1531 1530 1532 1533 1533 1533 1533 1533 1533 1532 1532
1501 1504 1506 1507 1510 1511 1512 1514 1515 1516 1517 1518 1518 1518 1519 1519 1519 1519 1519 1519 1520 1520 1520 1519 1520 1521 1521 1522 1524 1525 1526 1527 1527 1528 1528 1529 1530 1530 1530 1530 1530 1529 1529
1499 1500 1502 1504 1506 1508 1509 1510 1511 1512 1513 1514 1514 1515 1515 1515 1515 1515 1516 1515 1515 1515 1516 1516 1516 1516 1517 1518 1519 1520 1522 1523 1524 1524 1524 1525 1525 1526 1526 1526 1526 1526 1526
1496 1497 1499 1501 1503 1505 1506 1507 1508 1509 1510 1511 1511 1511 1512 1512 1512 1512 1512 1512 1512 1512 1512 1512 1512 1512 1513 1514 1515 1516 1517 1518 1519 1520 1520 1521 1521 1521 1521 1522 1522 1522 1522
1493 1495 1497 1498 1500 1502 1503 1504 1505 1505 1506 1507 1507 1508 1508 1508 1508 1508 1508 1508 1508 1508 1508 1508 1508 1509 1509 1510 1511 1512 1513 1514 1514 1515 1516 1516 1516 1517 1517 1518 1518 1518 1518
1491 1493 1494 1495 1497 1498 1500 1501 1501 1502 1503 1503 1504 1504 1504 1504 1504 1504 1504 1504 1504 1504 1504 1504 1504 1505 1505 1506 1506 1507 1508 1509 1510 1511 1511 1511 1511 1512 1513 1513 1513 1513 1513
1489 1491 1491 1492 1494 1495 1495 1497 1498 1498 1499 1499 1500 1500 1500 1500 1500 1500 1500 1500 1500 1500 1500 1500 1500 1500 1501 1501 1502 1503 1503 1504 1505 1505 1506 1506 1507 1507 1508 1509 1509 1509 1510
1487 1488 1489 1490 1491 1492 1492 1493 1494 1494 1495 1495 1496 1496 1496 1496 1496 1496 1496 1495 1495 1495 1495 1495 1496 1496 1496 1497 1497 1498 1499 1499 1500 1501 1501 1501 1502 1502 1503 1504 1504 1505 1505
1484 1485 1487 1487 1487 1488 1489 1489 1490 1490 1491 1492 1492 1492 1492 1492 1492 1492 1491 1491 1491 1491 1491 1491 1491 1491 1492 1492 1493 1493 1493 1494 1495 1495 1496 1496 1497 1497 1498 1499 1499 1500 1500
1483 1483 1484 1483 1484 1485 1486 1486 1486 1486 1486 1487 1488 1488 1488 1488 1488 1488 1487 1487 1487 1486 1486 1486 1487 1487 1487 1488 1488 1488 1489 1490 1490 1491 1491 1491 1492 1492 1493 1493 1494 1495 1495
1481 1481 1480 1481 1481 1482 1483 1483 1483 1483 1482 1483 1483 1484 1484 1484 1484 1484 1483 1483 1483 1483 1482 1482 1483 1483 1483 1484 1484 1484 1485 1486 1486 1486 1487 1487 1487 1487 1488 1489 1489 1490 1490
1478 1478 1478 1479 1479 1480 1480 1480 1480 1479 1479 1480 1480 1481 1480 1480 1479 1479 1479 1479 1479 1479 1478 1478 1479 1479 1479 1479 1480 1480 1481 1481 1481 1482 1482 1483 1483 1483 1484 1485 1485 1485 1486
1476 1476 1476 1476 1476 1477 1477 1477 1477 1477 1477 1477 1477 1477 1477 1476 1475 1475 1475 1475 1475 1475 1474 1474 1474 1475 1475 1475 1475 1476 1476 1477 1477 1477 1478 1479 1479 1479 1480 1480 1480 1480 1481
1474 1474 1474 1474 1474 1474 1474 1474 1474 1474 1474 1474 1474 1474 1474 1472 1472 1472 1471 1470 1471 1471 1470 1470 1470 1470 1470 1471 1471 1471 1472 1472 1472 1473 1474 1474 1475 1475 1475 1476 1476 1476 1477
1472 1472 1472 1472 1471 1471 1472 1471 1471 1472 1472 1472 1471 1471 1470 1470 1469 1467 1467 1466 1466 1467 1467 1466 1466 1466 1466 1466 1467 1467 1467 1467 1468 1469 1469 1470 1470 1471 1471 1472 1472 1473 1473
1470 1470 1469 1469 1469 1469 1469 1468 1468 1468 1468 1467 1467 1467 1466 1465 1465 1464 1463 1463 1463 1463 1463 1462 1462 1462 1463 1463 1463 1464 1464 1464 1464 1465 1465 1466 1467 1467 1467 1467 1468 1469 1469
1468 1467 1467 1466 1466 1465 1465 1465 1465 1465 1464 1463 1463 1463 1463 1462 1461 1460 1460 1459 1459 1459 1459 1458 1458 1459 1459 1460 1460 1460 1460 1460 1461 1461 1461 1462 1462 1463 1463 1463 1463 1464 1465
1465 1465 1464 1464 1463 1463 1462 1462 1462 1461 1461 1461 1460 1459 1459 1458 1458 1457 1456 1456 1456 1456 1456 1455 1455 1456 1456 1456 1456 1456 1456 1457 1457 1457 1457 1458 1458 1458 1459 1459 1459 1460 1461
1463 1463 1462 1462 1461 1460 1460 1460 1459 1459 1458 1458 1457 1457 1456 1456 1455 1454 1453 1453 1453 1453 1453 1453 1453 1453 1453 1453 1453 1453 1453 1454 1454 1454 1454 1454 1454 1454 1454 1455 1456 1456 1457
1461 1461 1460 1460 1459 1458 1458 1458 1457 1456 1455 1455 1455 1454 1454 1454 1453 1452 1452 1452 1451 1450 1451 1451 1451 1451 1450 1450 1450 1450 1451 1451 1451 1451 1451 1450 1451 1451 1451 1451 1452 1453 1453
1460 1460 1459 1459 1458 1457 1456 1456 1455 1455 1454 1453 1453 1453 1452 1452 1451 1451 1450 1449 1448 1448 1448 1449 1448 1448 1448 1448 1447 1447 1448 1448 1448 1448 1447 1448 1448 1448 1447 1448 1448 1449 1450
1458 1458 1457 1457 1457 1456 1455 1455 1454 1453 1453 1452 1452 1451 1451 1450 1450 1449 1448 1447 1447 1446 1446 1446 1446 1446 1445 1445 1445 1445 1445 1444 1445 1444 1444 1444 1444 1444 1444 1445 1445 1445 1445
1457 1456 1456 1455 1455 1454 1453 1453 1453 1452 1451 1451 1450 1450 1449 1448 1448 1447 1447 1446 1445 1445 1444 1444 1443 1443 1443 1443 1442 1442 1442 1442 1442 1442 1441 1441 1441 1441 1442 1442 1442 1442 1442
1456 1455 1454 1453 1453 1452 1452 1451 1451 1450 1450 1449 1448 1448 1447 1446 1446 1445 1444 1443 1443 1443 1442 1442 1441 1441 1441 1440 1440 1440 1440 1440 1440 1440 1439 1439 1439 1439 1439 1439 1439 1439 1439
1454 1453 1452 1452 1451 1450 1450 1449 1449 1448 1448 1447 1447 1446 1445 1444 1443 1443 1442 1441 1441 1440 1440 1440 1439 1439 1438 1438 1437 1437 1437 1437 1437 1437 1437 1436 1436 1436 1436 1437 1437 1436 1436